| time (UTC) | temp C | wind direction | speed KPH | gust KPH | rain 1hr cm | rain 24hr cm | rain mn cm | humidity % | barometer mb |
| 20260507211600 | 9 | 317 | 4.8 | 16.1 | 0.00 | 0.03 | 0.03 | 60 | 1006.1 |
| 20260507210058 | 9 | 253 | 4.8 | 17.7 | 0.00 | 0.03 | 0.03 | 60 | 1006.1 |
| 20260507204557 | 9 | 265 | 8.0 | 22.5 | 0.00 | 0.03 | 0.03 | 55 | 1005.9 |
| 20260507203057 | 9 | 252 | 4.8 | 17.7 | 0.00 | 0.03 | 0.03 | 56 | 1005.8 |
| 20260507201607 | 9 | 225 | 4.8 | 19.3 | 0.00 | 0.03 | 0.03 | 57 | 1005.8 |
| 20260507200057 | 9 | 296 | 8.0 | 27.4 | 0.00 | 0.03 | 0.03 | 56 | 1005.8 |
| 20260507194555 | 9 | 297 | 6.4 | 27.4 | 0.00 | 0.03 | 0.03 | 56 | 1005.8 |
| 20260507193055 | 8 | 219 | 4.8 | 29.0 | 0.00 | 0.03 | 0.03 | 58 | 1005.8 |
| 20260507191553 | 8 | 292 | 6.4 | 27.4 | 0.00 | 0.03 | 0.03 | 59 | 1006.0 |
| 20260507190053 | 10 | 290 | 8.0 | 20.9 | 0.00 | 0.03 | 0.03 | 58 | 1005.8 |
| 20260507184551 | 9 | 273 | 4.8 | 29.0 | 0.00 | 0.08 | 0.03 | 57 | 1005.8 |
| 20260507183051 | 10 | 240 | 8.0 | 35.4 | 0.00 | 0.08 | 0.03 | 58 | 1005.9 |
| 20260507181549 | 10 | 296 | 8.0 | 25.7 | 0.00 | 0.08 | 0.03 | 58 | 1005.9 |
| 20260507180049 | 9 | 184 | 6.4 | 32.2 | 0.00 | 0.08 | 0.03 | 57 | 1005.9 |
| 20260507174557 | 9 | 258 | 11.3 | 33.8 | 0.00 | 0.15 | 0.03 | 59 | 1005.8 |
| 20260507173046 | 8 | 263 | 8.0 | 30.6 | 0.00 | 0.15 | 0.03 | 63 | 1005.9 |
| 20260507171555 | 8 | 304 | 4.8 | 27.4 | 0.00 | 0.15 | 0.03 | 67 | 1005.9 |
| 20260507170044 | 8 | 259 | 8.0 | 25.7 | 0.00 | 0.15 | 0.03 | 67 | 1006.1 |
| 20260507164541 | 8 | 298 | 6.4 | 17.7 | 0.00 | 0.28 | 0.03 | 66 | 1006.2 |
| 20260507163039 | 9 | 246 | 6.4 | 24.1 | 0.00 | 0.28 | 0.03 | 65 | 1006.2 |
| 20260507161539 | 9 | 218 | 1.6 | 20.9 | 0.03 | 0.28 | 0.03 | 68 | 1006.2 |
| 20260507160036 | 8 | 302 | 9.7 | 32.2 | 0.03 | 0.28 | 0.03 | 67 | 1006.3 |
| 20260507154536 | 8 | 177 | 8.0 | 30.6 | 0.03 | 0.48 | 0.03 | 68 | 1006.4 |
| 20260507153033 | 8 | 267 | 6.4 | 33.8 | 0.03 | 0.48 | 0.03 | 69 | 1006.4 |
| 20260507151530 | 9 | 227 | 6.4 | 24.1 | 0.00 | 0.46 | 0.00 | 68 | 1006.4 |
| 20260507150028 | 8 | 193 | 6.4 | 19.3 | 0.00 | 0.46 | 0.00 | 70 | 1006.5 |
| 20260507144526 | 7 | 257 | 9.7 | 24.1 | 0.00 | 0.61 | 0.00 | 74 | 1006.5 |
| 20260507143023 | 7 | 301 | 4.8 | 17.7 | 0.00 | 0.61 | 0.00 | 75 | 1006.8 |
| 20260507141519 | 8 | 259 | 4.8 | 19.3 | 0.00 | 0.61 | 0.00 | 78 | 1006.7 |
| 20260507140016 | 7 | 262 | 4.8 | 29.0 | 0.00 | 0.61 | 0.00 | 81 | 1006.7 |
| 20260507134511 | 6 | 245 | 3.2 | 19.3 | 0.00 | 0.76 | 0.00 | 81 | 1006.7 |
| 20260507133010 | 6 | 250 | 6.4 | 17.7 | 0.00 | 0.76 | 0.00 | 82 | 1006.8 |
| 20260507131507 | 5 | 296 | 8.0 | 22.5 | 0.00 | 0.76 | 0.00 | 82 | 1006.9 |
| 20260507130004 | 5 | 290 | 9.7 | 29.0 | 0.00 | 0.89 | 0.00 | 84 | 1006.9 |
| 20260507124508 | 5 | 276 | 4.8 | 24.1 | 0.00 | 0.89 | 0.00 | 87 | 1006.8 |
| 20260507123059 | 5 | 227 | 8.0 | 19.3 | 0.00 | 0.89 | 0.00 | 90 | 1006.9 |
| 20260507121556 | 6 | 227 | 1.6 | 17.7 | 0.00 | 0.89 | 0.00 | 93 | 1006.8 |
| 20260507120054 | 6 | 277 | 1.6 | 17.7 | 0.00 | 0.89 | 0.00 | 93 | 1006.6 |
| 20260507114652 | 6 | 275 | 3.2 | 12.9 | 0.00 | 1.02 | 0.00 | 96 | 1006.6 |
| 20260507113051 | 6 | 214 | 1.6 | 6.4 | 0.00 | 1.02 | 0.00 | 96 | 1006.5 |
| 20260507111551 | 5 | 290 | 3.2 | 14.5 | 0.00 | 1.02 | 0.00 | 97 | 1006.6 |
| 20260507110052 | 5 | 136 | 0.0 | 9.7 | 0.00 | 1.02 | 0.00 | 97 | 1006.3 |
| 20260507104550 | 5 | 284 | 0.0 | 6.4 | 0.00 | 1.07 | 0.00 | 98 | 1006.5 |
| 20260507103047 | 5 | 185 | 1.6 | 14.5 | 0.00 | 1.07 | 0.00 | 98 | 1006.6 |
| 20260507101549 | 5 | 239 | 1.6 | 12.9 | 0.00 | 1.07 | 0.00 | 98 | 1006.5 |
| 20260507100045 | 5 | 254 | 3.2 | 11.3 | 0.00 | 1.07 | 0.00 | 98 | 1006.4 |
| 20260507094546 | 5 | 269 | 0.0 | 11.3 | 0.00 | 1.07 | 0.00 | 99 | 1006.2 |
| 20260507093044 | 5 | 140 | 0.0 | 4.8 | 0.00 | 1.07 | 0.00 | 99 | 1006.1 |
| 20260507091540 | 5 | 275 | 0.0 | 6.4 | 0.00 | 1.07 | 0.00 | 99 | 1006.2 |
| 20260507090038 | 5 | 250 | 0.0 | 8.0 | 0.00 | 1.07 | 0.00 | 99 | 1006.2 |
| 20260507084538 | 5 | 260 | 0.0 | 4.8 | 0.00 | 1.07 | 0.00 | 99 | 1006.2 |
| 20260507083034 | 5 | 294 | 0.0 | 6.4 | 0.00 | 1.07 | 0.00 | 99 | 1006.6 |
| 20260507081533 | 5 | 269 | 0.0 | 3.2 | 0.00 | 1.07 | 0.00 | 99 | 1006.5 |
| 20260507080038 | 5 | 243 | 0.0 | 3.2 | 0.00 | 1.07 | 0.00 | 99 | 1006.6 |
| 20260507074532 | 5 | 292 | 0.0 | 6.4 | 0.00 | 1.12 | 0.00 | 99 | 1006.6 |
| 20260507073032 | 5 | 287 | 0.0 | 6.4 | 0.00 | 1.12 | 0.00 | 99 | 1006.5 |
| 20260507071530 | 4 | 292 | 1.6 | 8.0 | 0.00 | 1.12 | 0.00 | 100 | 1006.6 |
| 20260507070029 | 4 | 276 | 1.6 | 6.4 | 0.00 | 1.12 | 0.00 | 99 | 1006.5 |
| 20260507064528 | 4 | 167 | 0.0 | 3.2 | 0.00 | 1.12 | 0.00 | 99 | 1006.7 |
| 20260507063026 | 5 | 192 | 0.0 | 4.8 | 0.00 | 1.12 | 0.00 | 100 | 1006.6 |
| 20260507061525 | 4 | 202 | 0.0 | 8.0 | 0.00 | 1.12 | 0.00 | 100 | 1006.8 |
| 20260507060033 | 4 | 170 | 0.0 | 4.8 | 0.00 | 1.12 | 0.00 | 100 | 1006.8 |
| 20260507054522 | 4 | 176 | 0.0 | 1.6 | 0.00 | 1.14 | 0.00 | 100 | 1006.9 |
| 20260507053020 | 4 | 178 | 0.0 | 0.0 | 0.00 | 1.14 | 0.00 | 100 | 1007.1 |
| 20260507051517 | 4 | 178 | 0.0 | 0.0 | 0.00 | 1.14 | 0.00 | 100 | 1007.5 |
| 20260507050014 | 4 | 178 | 0.0 | 0.0 | 0.00 | 1.14 | 0.00 | 100 | 1007.7 |
| 20260507044530 | 4 | 192 | 0.0 | 0.0 | 0.00 | 1.27 | 0.00 | 100 | 1007.9 |
| 20260507043010 | 4 | 182 | 0.0 | 0.0 | 0.00 | 1.27 | 0.00 | 100 | 1008.0 |
| 20260507041509 | 4 | 182 | 0.0 | 0.0 | 0.00 | 1.27 | 0.00 | 100 | 1008.1 |
| 20260507040008 | 4 | 182 | 0.0 | 0.0 | 0.00 | 1.40 | 1.27 | 100 | 1008.1 |
| 20260507034506 | 5 | 281 | 0.0 | 0.0 | 0.00 | 1.40 | 1.27 | 100 | 1008.3 |
| 20260507033005 | 5 | 281 | 0.0 | 3.2 | 0.00 | 1.40 | 1.27 | 100 | 1008.3 |
| 20260507031504 | 5 | 277 | 0.0 | 0.0 | 0.00 | 1.40 | 1.27 | 100 | 1008.3 |
| 20260507030004 | 5 | 277 | 0.0 | 0.0 | 0.00 | 1.50 | 1.27 | 100 | 1008.1 |
| 20260507024502 | 5 | 277 | 0.0 | 0.0 | 0.00 | 1.50 | 1.27 | 100 | 1008.2 |
| 20260507023003 | 5 | 277 | 0.0 | 1.6 | 0.00 | 1.50 | 1.27 | 100 | 1008.4 |
| 20260507021501 | 5 | 277 | 0.0 | 1.6 | 0.00 | 1.50 | 1.27 | 100 | 1008.6 |
| 20260507020001 | 5 | 279 | 0.0 | 4.8 | 0.00 | 1.50 | 1.27 | 100 | 1008.8 |
| 20260507014603 | 5 | 348 | 0.0 | 0.0 | 0.00 | 1.50 | 1.27 | 100 | 1008.5 |
| 20260507013103 | 5 | 348 | 0.0 | 0.0 | 0.00 | 1.50 | 1.27 | 99 | 1008.4 |
| 20260507011600 | 5 | 348 | 0.0 | 0.0 | 0.00 | 1.50 | 1.27 | 99 | 1008.4 |
| 20260507010059 | 5 | 348 | 0.0 | 0.0 | 0.00 | 1.50 | 1.27 | 98 | 1008.3 |
| 20260507004600 | 5 | 348 | 0.0 | 0.0 | 0.00 | 1.50 | 1.27 | 98 | 1008.0 |
| 20260507003057 | 6 | 348 | 0.0 | 0.0 | 0.00 | 1.50 | 1.27 | 97 | 1007.9 |
| 20260507001600 | 6 | 348 | 0.0 | 0.0 | 0.00 | 1.50 | 1.27 | 97 | 1008.0 |
| 20260507000056 | 6 | 348 | 0.0 | 0.0 | 0.00 | 1.50 | 1.27 | 96 | 1008.0 |
| 20260506234557 | 6 | 348 | 0.0 | 0.0 | 0.00 | 1.50 | 1.27 | 96 | 1007.7 |
| 20260506233055 | 7 | 348 | 0.0 | 0.0 | 0.00 | 1.50 | 1.27 | 94 | 1007.6 |
| 20260506231554 | 7 | 348 | 0.0 | 0.0 | 0.00 | 1.50 | 1.27 | 93 | 1007.5 |
| 20260506230055 | 7 | 348 | 0.0 | 0.0 | 0.00 | 1.50 | 1.27 | 94 | 1007.5 |
| 20260506224603 | 7 | 348 | 0.0 | 0.0 | 0.00 | 1.50 | 1.27 | 92 | 1007.7 |
| 20260506223052 | 7 | 348 | 0.0 | 0.0 | 0.00 | 1.50 | 1.27 | 93 | 1007.6 |
| 20260506221554 | 7 | 348 | 0.0 | 1.6 | 0.00 | 1.50 | 1.27 | 92 | 1007.4 |
| 20260506220051 | 7 | 5 | 0.0 | 1.6 | 0.00 | 1.50 | 1.27 | 92 | 1007.7 |
| 20260506214606 | 7 | 5 | 0.0 | 3.2 | 0.00 | 1.50 | 1.27 | 93 | 1007.4 |
| 20260506213049 | 7 | 262 | 0.0 | 1.6 | 0.00 | 1.50 | 1.27 | 94 | 1007.8 |